Hourly Data Report for June 28, 2017

FISHER BRANCH (AUT)
MANITOBA

51°05'00.100" N
97°33'16.200" W
253.00 m
50309J6
71442
WSZ

Download Data

Hourly Data (June 2017)
Hourly Data Report for June 28, 2017
TIME
LST
Temp Definition
°C
Dew Point Definition
°C
Rel Hum Definition
%
Precip. Amount Definition
mm

Wind Dir Definition
10's deg

Wind Spd Definition
km/h
Visibility Definition
km
Stn Press Definition
kPa
Hmdx Definition


Wind Chill Definition


Weather Definition


00:00 19.7 8.8 49 0.0 14 16   97.19     LegendNANA
01:00 18.9 9.0 53 0.0 14 14   97.09     LegendNANA
02:00 17.5 9.8 61 0.0 11 12   97.08     LegendNANA
03:00 17.2 10.4 64 0.0 12 16   96.99     LegendNANA
04:00 16.4 10.5 68 0.0 13 10   96.95     LegendNANA
05:00 16.2 10.8 71 0.0 13 10   96.97     LegendNANA
06:00 16.1 11.1 72 0.0 11 8   97.00     LegendNANA
07:00 14.2 12.0 87 2.6 16 11   97.08     LegendNANA
08:00 14.7 12.5 87 5.1 15 16   97.05     LegendNANA
09:00 16.5 12.8 79 0.0 20 7   97.09     LegendNANA
10:00 19.8 14.6 72 0.0 20 5   97.10     LegendNANA
11:00 20.8 14.7 68 0.0 16 4   97.12 25   LegendNANA
12:00 21.7 15.9 69 0.0 15 10   97.15 26   LegendNANA
13:00 21.5 15.8 70 0.0 14 8   97.16 26   LegendNANA
14:00 22.1 16.2 69 0.0 15 6   97.18 27   LegendNANA
15:00 23.1 16.7 67 0.0 12 7   97.18 28   LegendNANA
16:00 22.3 16.5 70 0.0 12 8   97.27 27   LegendNANA
17:00 23.0 15.7 64 0.0 32 11   97.32 27   LegendNANA
18:00 22.6 16.4 68 0.0 36 10   97.37 27   LegendNANA
19:00 21.7 16.5 72 0.0 1 6   97.42 27   LegendNANA
20:00 20.0 17.0 83 0.0 6 12   97.49 25   LegendNANA
21:00 19.0 16.6 86 0.0 5 11   97.57     LegendNANA
22:00 17.3 16.0 92 0.0 10 7   97.58     LegendNANA
23:00 15.5 14.7 95 0.0 9 2   97.63     LegendNANA

Notes on Data Quality.

Legend

  • E = Estimated
  • M = Missing
  • NA = Not Available*
  • [empty] = Indicates an unobserved value
Date modified: